Weather History for Rexburg, ID

Change the Weather History Date:

Sunday, March 16, 2014

  Actual Average Record
Temperature  
Mean Temperature 44 °F 34 °F  
Max Temperature 60 °F 45 °F 60 °F (2014)
Min Temperature 27 °F 24 °F 9 °F (2002)
Degree Days  
Heating Degree Days 21 31  
Month to date heating degree days 446 545  
Since 1 July heating degree days 6261 6518  
Cooling Degree Days 0 0  
Month to date cooling degree days 0 0  
Year to date cooling degree days 0 0  
Moisture  
Dew Point 20 °F    
Average Humidity 49    
Maximum Humidity 75    
Minimum Humidity 22    
Precipitation  
Precipitation 0.00 in 0.03 in 0.32 in (2012)
Month to date precipitation 0.47 0.46  
Year to date precipitation 1.87 2.03  
Sea Level Pressure  
Sea Level Pressure 30.22 in    
Wind  
Wind Speed 12 mph (SSW)    
Max Wind Speed 26 mph    
Max Gust Speed 35 mph    
Visibility 10 miles    
Events      
T = Trace of Precipitation, MM = Missing Value Source: NWS Daily Summary

Daily Weather History Graph

Daily Weather History Graph

Search for Another Location

Airport:

Trip Planner

Search our weather history database for the weather conditions in past years. The results will help you decide how hot, cold, wet, or windy it might be!

Date:

Astronomy

Mar. 16, 2014 Rise Set
Actual Time 7:37 AM MDT 7:34 PM MDT
Civil Twilight 7:08 AM MDT 8:03 PM MDT
Nautical Twilight 6:35 AM MDT 8:37 PM MDT
Astronomical Twilight 6:01 AM MDT 9:11 PM MDT
Moon 7:57 PM MDT (3/16) 7:22 AM MDT (3/16)
Length of Visible Light 12h 54m
Length of Day
11h 57m
Full, 100% of the Moon is Illuminated
Mar 16
Full
Mar 23
Last Quarter
Mar 30
New
Apr 7
First Quarter
Apr 15
Full

Hourly Weather History & Observations

Time (MDT) Temp. Windchill Dew Point Humidity Pressure Visibility Wind Dir Wind Speed Gust Speed Precip Events Conditions
12:53 AM 37.9 °F 32.1 °F 17.1 °F 43% 30.41 in 10.0 mi SSW 8.1 mph - N/A   Clear
1:53 AM 36.0 °F 29.0 °F 18.0 °F 48% 30.41 in 10.0 mi SSW 9.2 mph - N/A   Clear
2:53 AM 35.1 °F 27.4 °F 18.0 °F 50% 30.42 in 10.0 mi SSW 10.4 mph - N/A   Clear
3:53 AM 32.0 °F 26.4 °F 18.0 °F 56% 30.42 in 10.0 mi SW 5.8 mph - N/A   Clear
4:53 AM 30.9 °F 26.2 °F 18.0 °F 59% 30.41 in 10.0 mi SW 4.6 mph - N/A   Clear
5:53 AM 34.0 °F 29.8 °F 16.0 °F 48% 30.39 in 10.0 mi SSW 4.6 mph - N/A   Clear
6:53 AM 32.0 °F 26.4 °F 17.1 °F 54% 30.38 in 10.0 mi SSW 5.8 mph - N/A   Clear
7:53 AM 28.0 °F 24.2 °F 19.0 °F 69% 30.40 in 10.0 mi NNE 3.5 mph - N/A   Clear
8:53 AM 28.9 °F - 21.9 °F 75% 30.38 in 10.0 mi Calm Calm - N/A   Clear
9:53 AM 37.9 °F 35.5 °F 23.0 °F 55% 30.36 in 10.0 mi Variable 3.5 mph - N/A   Clear
10:53 AM 44.1 °F 38.6 °F 19.0 °F 37% 30.33 in 10.0 mi SW 10.4 mph - N/A   Clear
11:53 AM 48.0 °F - 19.0 °F 32% 30.30 in 10.0 mi SW 9.2 mph - N/A   Clear
12:53 PM 48.0 °F - 19.9 °F 33% 30.27 in 10.0 mi SSW 11.5 mph - N/A   Clear
1:53 PM 53.1 °F - 21.0 °F 29% 30.21 in 10.0 mi SW 16.1 mph - N/A   Clear
2:53 PM 57.0 °F - 21.0 °F 25% 30.15 in 10.0 mi SW 16.1 mph 28.8 mph N/A   Clear
3:53 PM 57.9 °F - 21.0 °F 24% 30.12 in 10.0 mi SW 20.7 mph 32.2 mph N/A   Clear
4:53 PM 60.1 °F - 21.0 °F 22% 30.07 in 10.0 mi SW 21.9 mph 34.5 mph N/A   Clear
5:53 PM 55.9 °F - 19.0 °F 24% 30.06 in 10.0 mi SW 18.4 mph 29.9 mph N/A   Clear
6:53 PM 55.0 °F - 21.0 °F 27% 30.02 in 10.0 mi SSW 12.7 mph 20.7 mph N/A   Clear
7:53 PM 53.1 °F - 19.0 °F 26% 30.01 in 10.0 mi South 8.1 mph - N/A   Clear
8:53 PM 50.0 °F - 19.9 °F 31% 29.99 in 10.0 mi South 12.7 mph - N/A   Clear
9:53 PM 48.0 °F - 24.1 °F 39% 29.95 in 10.0 mi South 18.4 mph 26.5 mph N/A   Clear
10:53 PM 46.0 °F 38.8 °F 24.1 °F 42% 29.91 in 10.0 mi South 18.4 mph 28.8 mph N/A   Clear
11:53 PM 46.0 °F 38.8 °F 23.0 °F 40% 29.85 in 10.0 mi South 18.4 mph 28.8 mph N/A   Clear